EW4784 Weather Reports


Display with metric or nautical units.
time (UTC)temp
F
wind
direction
speed
MPH
gust
MPH
rain 1hr
in
rain 24hr
in
rain mn
in
humidity
%
barometer
mb
20260505075124 58 286 8.0 19.0 0.00 0.02 0.02 83
20260505074623 58 270 5.0 13.0 0.00 0.02 0.02 83
20260505074123 58 271 7.0 17.0 0.00 0.02 0.02 82
20260505073621 58 285 7.0 22.0 0.00 0.02 0.02 82
20260505073141 58 282 9.0 24.0 0.00 0.02 0.02 81
20260505072619 58 283 8.0 17.0 0.00 0.02 0.02 81
20260505072118 58 288 4.0 13.0 0.00 0.02 0.02 81
20260505071617 59 311 8.0 16.0 0.00 0.02 0.02 80
20260505071116 59 278 5.0 12.0 0.00 0.02 0.02 80
20260505070615 59 261 6.0 17.0 0.00 0.02 0.02 80
20260505070114 59 268 5.0 18.0 0.00 0.02 0.02 80
20260505065614 59 263 6.0 17.0 0.00 0.02 0.02 80
20260505065133 59 259 8.0 22.0 0.00 0.02 0.02 80
20260505064611 59 251 10.0 23.0 0.00 0.02 0.02 81
20260505064110 59 284 11.0 24.0 0.00 0.02 0.02 81
20260505063609 59 264 9.0 28.0 0.01 0.02 0.02 81
20260505063108 59 265 9.0 24.0 0.01 0.02 0.02 80
20260505062607 59 267 7.0 18.0 0.01 0.02 0.02 80
20260505062106 59 277 6.0 18.0 0.01 0.02 0.02 80
20260505061605 59 301 9.0 19.0 0.01 0.02 0.02 81
20260505061105 59 291 8.0 23.0 0.01 0.02 0.02 81
20260505060603 59 282 8.0 24.0 0.01 0.02 0.02 81
20260505055601 58 267 6.0 15.0 0.02 0.02 0.02 82
20260505055121 58 261 6.0 17.0 0.02 0.02 0.02 83
20260505054559 58 252 7.0 17.0 0.02 0.02 0.02 84
20260505054058 57 239 6.0 21.0 0.02 0.02 0.02 87
20260505053557 56 255 5.0 14.0 0.01 0.01 0.01 89
20260505053056 56 236 5.0 12.0 0.01 0.01 0.01 90
20260505052555 56 241 6.0 14.0 0.01 0.01 0.01 90
20260505052054 56 222 6.0 12.0 0.01 0.01 0.01 89
20260505051552 56 217 9.0 17.0 0.01 0.01 0.01 89
20260505051052 57 230 7.0 16.0 0.01 0.01 0.01 88
20260505050551 57 215 11.0 28.0 0.01 0.01 0.01 87
20260505041541 65 243 13.0 23.0 0.00 0.00 0.00 67
20260505041040 65 246 13.0 37.0 0.00 0.00 0.00 67
20260505040539 65 250 14.0 29.0 0.00 0.00 0.00 68
20260505040038 65 243 11.0 26.0 0.00 0.00 0.00 68
20260505035537 65 247 12.0 31.0 0.00 0.00 0.00 69
20260505035035 64 241 10.0 29.0 0.00 0.00 0.00 70
20260505034535 64 235 8.0 17.0 0.00 0.00 0.00 71
20260505034034 64 242 6.0 15.0 0.00 0.00 0.00 71
20260505033533 64 236 9.0 18.0 0.00 0.00 0.00 71
20260505033032 64 218 8.0 15.0 0.00 0.00 0.00 70
20260505032531 64 220 7.0 20.0 0.00 0.00 0.00 70
20260505032030 64 226 5.0 17.0 0.00 0.00 0.00 71
20260505031529 64 248 5.0 15.0 0.00 0.00 0.00 70
20260505031028 64 254 9.0 23.0 0.00 0.00 0.00 70
20260505030548 64 224 11.0 26.0 0.00 0.00 0.00 71
20260505030026 63 227 9.0 21.0 0.00 0.00 0.00 71
20260505025546 63 229 7.0 16.0 0.00 0.00 0.00 73
20260505025024 63 226 4.0 14.0 0.00 0.00 0.00 73
20260505024522 62 226 6.0 14.0 0.00 0.00 0.00 74
20260505024021 62 224 5.0 10.0 0.00 0.00 0.00 75
20260505023520 62 246 4.0 12.0 0.00 0.00 0.00 76
20260505023020 62 243 5.0 19.0 0.00 0.00 0.00 76
20260505022519 61 248 6.0 15.0 0.00 0.00 0.00 77
20260505022019 61 238 6.0 13.0 0.00 0.00 0.00 77
20260505021517 61 238 5.0 12.0 0.00 0.00 0.00 78
20260505021016 61 250 4.0 11.0 0.00 0.00 0.00 78
20260505020515 61 246 6.0 15.0 0.00 0.00 0.00 78
20260505020035 61 238 6.0 16.0 0.00 0.00 0.00 79
20260505015512 61 233 6.0 14.0 0.00 0.00 0.00 79
20260505015012 61 226 5.0 11.0 0.00 0.00 0.00 79
20260505014511 61 237 4.0 13.0 0.00 0.00 0.00 79
20260505014010 61 252 5.0 16.0 0.00 0.00 0.00 78
20260505013509 62 249 6.0 23.0 0.00 0.00 0.00 74
20260505013007 64 245 9.0 21.0 0.00 0.00 0.00 70
20260505012506 64 252 10.0 21.0 0.00 0.00 0.00 69
20260505012006 64 259 8.0 20.0 0.00 0.00 0.00 69
20260505011525 63 237 6.0 19.0 0.00 0.00 0.00 69
20260505011004 63 243 10.0 18.0 0.00 0.00 0.00 69
20260505010503 63 254 7.0 16.0 0.00 0.00 0.00 70
20260505010002 64 243 6.0 14.0 0.00 0.00 0.00 70
20260505005500 64 254 3.0 11.0 0.00 0.00 0.00 69
20260505005021 64 264 7.0 14.0 0.00 0.00 0.00 69
20260505004520 64 266 6.0 14.0 0.00 0.00 0.00 69
20260505003957 64 308 8.0 19.0 0.00 0.00 0.00 68
20260505003456 64 308 10.0 20.0 0.00 0.00 0.00 69
20260505002956 64 300 6.0 18.0 0.00 0.00 0.00 70
20260505002516 63 258 7.0 21.0 0.00 0.00 0.00 70
20260505002015 63 253 10.0 27.0 0.00 0.00 0.00 70
20260505001452 63 259 7.0 22.0 0.00 0.00 0.00 69
20260505000951 63 240 10.0 24.0 0.00 0.00 0.00 68
20260505000451 63 228 16.0 33.0 0.00 0.00 0.00 67
20260505000020 64 219 7.0 20.0 0.00 0.00 0.00 65
20260504235949 64 219 7.0 20.0 0.00 0.00 0.00 65
20260504235448 65 240 13.0 24.0 0.00 0.00 0.00 62
20260504234947 67 257 17.0 30.0 0.00 0.00 0.00 54
20260504234446 68 245 18.0 42.0 0.00 0.00 0.00 51
20260504233945 70 232 21.0 46.0 0.00 0.00 0.00 48
20260504233444 72 243 17.0 39.0 0.00 0.00 0.00 47
20260504232944 72 242 9.0 21.0 0.00 0.00 0.00 48
20260504232442 72 235 11.0 28.0 0.00 0.00 0.00 48
20260504231941 72 251 11.0 30.0 0.00 0.00 0.00 48
20260504231440 73 226 7.0 19.0 0.00 0.00 0.00 48
20260504230939 73 227 8.0 14.0 0.00 0.00 0.00 47
20260504230459 73 229 10.0 26.0 0.00 0.00 0.00 47
20260504225938 73 236 12.0 22.0 0.00 0.00 0.00 45
20260504225457 75 231 11.0 22.0 0.00 0.00 0.00 43
20260504224935 76 246 11.0 23.0 0.00 0.00 0.00 41
20260504224435 77 235 11.0 24.0 0.00 0.00 0.00 41
20260504223954 78 234 13.0 29.0 0.00 0.00 0.00 40
20260504223432 78 242 6.0 20.0 0.00 0.00 0.00 40
20260504222931 77 285 9.0 31.0 0.00 0.00 0.00 40
20260504222430 76 270 10.0 23.0 0.00 0.00 0.00 42
20260504221930 76 255 10.0 34.0 0.00 0.00 0.00 41
20260504221428 75 256 12.0 28.0 0.00 0.00 0.00 42
20260504220948 75 247 10.0 28.0 0.00 0.00 0.00 42
20260504220427 75 247 12.0 22.0 0.00 0.00 0.00 41
20260504215925 76 257 12.0 28.0 0.00 0.00 0.00 40
20260504215424 76 233 14.0 28.0 0.00 0.00 0.00 39
20260504214923 76 244 15.0 32.0 0.00 0.00 0.00 38
20260504214422 77 271 12.0 44.0 0.00 0.00 0.00 38
20260504213922 76 251 11.0 24.0 0.00 0.00 0.00 38
20260504213420 75 217 12.0 26.0 0.00 0.00 0.00 39
20260504212919 75 227 18.0 41.0 0.00 0.00 0.00 37
20260504212418 76 257 11.0 27.0 0.00 0.00 0.00 37
20260504211917 75 275 13.0 28.0 0.00 0.00 0.00 37
20260504211417 75 252 18.0 39.0 0.00 0.00 0.00 37
20260504210936 75 247 14.0 37.0 0.00 0.00 0.00 36
20260504210414 75 250 16.0 42.0 0.00 0.00 0.00 36
20260504205913 76 249 15.0 35.0 0.00 0.00 0.00 36
20260504205412 75 253 15.0 35.0 0.00 0.00 0.00 36
20260504204911 74 240 13.0 31.0 0.00 0.00 0.00 37
20260504204410 75 232 18.0 36.0 0.00 0.00 0.00 36
20260504203909 75 242 13.0 26.0 0.00 0.00 0.00 36
20260504203408 75 229 16.0 32.0 0.00 0.00 0.00 36
20260504202928 75 216 17.0 41.0 0.00 0.00 0.00 35
20260504202406 75 256 19.0 37.0 0.00 0.00 0.00 34
20260504201905 75 251 17.0 33.0 0.00 0.00 0.00 34
20260504201425 75 235 15.0 30.0 0.00 0.00 0.00 34
20260504200904 77 234 14.0 29.0 0.00 0.00 0.00 34
20260504200402 77 235 15.0 27.0 0.00 0.00 0.00 34
20260504195901 77 248 13.0 31.0 0.00 0.00 0.00 33
20260504195401 77 294 15.0 31.0 0.00 0.00 0.00 32
20260504194920 77 237 18.0 36.0 0.00 0.00 0.00 32
20260504194358 77 230 13.0 30.0 0.00 0.00 0.00 30
20260504193857 78 279 15.0 32.0 0.00 0.00 0.00 29
20260504193356 77 257 13.0 41.0 0.00 0.00 0.00 29
20260504192915 77 260 18.0 39.0 0.00 0.00 0.00 29
20260504192354 76 273 18.0 35.0 0.00 0.00 0.00 29
20260504191852 76 221 15.0 31.0 0.00 0.00 0.00 29
20260504191352 76 234 17.0 36.0 0.00 0.00 0.00 28
20260504190913 77 252 21.0 54.0 0.00 0.00 0.00 27
20260504190350 78 279 18.0 41.0 0.00 0.00 0.00 28
20260504185849 77 303 16.0 40.0 0.00 0.00 0.00 29
20260504185347 76 284 13.0 34.0 0.00 0.00 0.00 32
20260504184847 77 238 13.0 24.0 0.00 0.00 0.00 32
20260504184408 76 229 13.0 28.0 0.00 0.00 0.00 36
20260504183907 76 221 13.0 34.0 0.00 0.00 0.00 35
20260504183344 76 234 15.0 32.0 0.00 0.00 0.00 34
20260504182843 77 250 15.0 34.0 0.00 0.00 0.00 35
20260504182342 76 227 16.0 30.0 0.00 0.00 0.00 34
20260504181841 77 242 13.0 30.0 0.00 0.00 0.00 35
20260504181340 77 229 15.0 26.0 0.00 0.00 0.00 34
20260504180839 78 245 11.0 25.0 0.00 0.00 0.00 35
20260504180359 78 251 11.0 25.0 0.00 0.00 0.00 34
20260504175837 77 248 15.0 32.0 0.00 0.00 0.00 34
20260504175336 76 240 13.0 32.0 0.00 0.00 0.00 35
20260504174834 77 228 10.0 21.0 0.00 0.00 0.00 37
20260504174334 76 246 10.0 27.0 0.00 0.00 0.00 37
20260504173833 75 240 14.0 31.0 0.00 0.00 0.00 38
20260504173332 75 220 14.0 31.0 0.00 0.00 0.00 38
20260504172831 75 228 15.0 26.0 0.00 0.00 0.00 38
20260504172331 75 236 14.0 30.0 0.00 0.00 0.00 39
20260504171829 74 223 15.0 28.0 0.00 0.00 0.00 37
20260504171328 75 272 15.0 26.0 0.00 0.00 0.00 36
20260504170827 74 266 17.0 36.0 0.00 0.00 0.00 36
20260504170326 74 231 12.0 26.0 0.00 0.00 0.00 37
20260504160314 72 238 10.0 21.0 0.00 0.00 0.00 41
20260504150802 67 230 10.0 18.0 0.00 0.00 0.00 51
20260504150301 66 227 7.0 18.0 0.00 0.00 0.00 53
20260504141251 61 253 11.0 23.0 0.00 0.00 0.00 60
20260504140750 61 248 11.0 28.0 0.00 0.00 0.00 61
20260504140310 60 214 9.0 19.0 0.00 0.00 0.00 61
20260504130738 57 237 10.0 17.0 0.00 0.00 0.00 66
20260504130237 57 262 7.0 18.0 0.00 0.00 0.00 67
20260504120225 51 248 7.0 17.0 0.00 0.00 0.00 75
20260504110714 47 236 4.0 13.0 0.00 0.00 0.00 80
20260504110213 47 229 3.0 8.0 0.00 0.00 0.00 80
20260504100201 47 236 2.0 9.0 0.00 0.00 0.00 79
20260504081639 48 248 6.0 14.0 0.00 0.00 0.00 74
20260504081138 48 249 6.0 20.0 0.00 0.00 0.00 74
20260504080637 48 251 5.0 20.0 0.00 0.00 0.00 74
20260504080136 48 242 6.0 17.0 0.00 0.00 0.00 74